Location: Warszawa
(52.2500°N, 21.0000°E)
Time: 06:43:34
(UTC+02:00)

SPROUT - Visible Passes

Search period start: 16 April 2024 00:00
Search period end: 26 April 2024 00:00
Orbit: 474 x 479 km, 98.0° (Epoch: 15 April)

Date Brightness Start Highest point End Pass type
(mag) Time Alt. Az. Time Alt. Az. Time Alt. Az.
16 Apr ? 02:56:31 39° SE 02:57:38 63° ENE 03:01:11 10° N visible
16 Apr ? 04:30:42 13° W 04:31:15 13° W 04:32:58 10° WNW visible
17 Apr ? 02:29:07 21° ESE 02:30:47 32° ENE 02:33:59 10° N visible
17 Apr ? 04:03:17 22° WSW 04:04:02 24° W 04:07:00 10° NW visible
18 Apr ? 02:01:31 11° ESE 02:03:50 18° ENE 02:06:20 10° NNE visible
18 Apr ? 03:35:40 34° SSW 03:36:45 47° W 03:40:12 10° NNW visible
19 Apr ? 01:36:04 10° ENE 01:36:47 10° NE 01:37:32 10° NE visible
19 Apr ? 03:07:52 33° SSE 03:09:22 83° ENE 03:12:55 10° NNW visible
20 Apr ? 02:39:53 20° SE 02:41:53 40° ENE 02:45:14 10° N visible
20 Apr ? 04:14:00 16° WSW 04:15:14 19° W 04:17:50 10° NW visible
21 Apr ? 02:11:41 11° ESE 02:14:19 22° ENE 02:17:05 10° NNE visible
21 Apr ? 03:45:49 24° SSW 03:47:18 36° W 03:50:37 10° NNW visible
22 Apr ? 01:45:07 10° E 01:46:39 12° ENE 01:48:11 10° NNE visible
22 Apr ? 03:17:25 26° S 03:19:17 78° WSW 03:22:50 10° NNW visible
23 Apr ? 02:48:49 18° SE 02:51:11 49° ENE 02:54:36 10° N visible
23 Apr ? 04:22:55 12° WSW 04:24:36 16° W 04:26:48 10° NW visible
24 Apr ? 02:20:03 10° ESE 02:22:59 25° ENE 02:25:57 10° N visible
24 Apr ? 03:54:07 18° SSW 03:56:02 30° W 03:59:11 10° NNW visible
25 Apr ? 01:52:49 10° E 01:54:43 14° ENE 01:56:38 10° NNE visible
25 Apr ? 03:25:08 20° S 03:27:24 64° WSW 03:30:54 10° NNW visible
